{"data":{"norad_id":57878,"epoch":"2026-05-25T04:56:04.862112Z","epoch_age_seconds":58021,"freshness":"FRESH","line1":"1 57878U 23144Q   26145.20561183 -.00001457  00000+0 -43458-4 0  9999","line2":"2 57878  42.9982 212.7306 0000953 279.4007  80.6737 15.27561365149341","mean_motion":15.27561365,"eccentricity":9.53e-5,"inclination_deg":42.9982,"raan_deg":212.7306,"arg_perigee_deg":279.4007,"mean_anomaly_deg":80.6737,"bstar":-4.3458e-5,"rev_number":14934,"period_min":94.267898690931,"perigee_km":482.45102014808,"apogee_km":483.75877285356,"semimajor_km":6861.2418965008,"source":"CELESTRAK","updated_at":"2026-05-25T13:38:18.449572Z"}}